Weather History for KAUW - August, 2013

Change the Weather History Date:

Monday, August 12, 2013

  Actual Average Record
Temperature  
Mean Temperature 67 °F 68 °F  
Max Temperature 80 °F 79 °F 95 °F (1947)
Min Temperature 53 °F 58 °F 38 °F (1902)
Degree Days  
Heating Degree Days 0 1  
Month to date heating degree days 12 12  
Since 1 June heating degree days 128 124  
Since 1 July heating degree days 42 35  
Cooling Degree Days 2 4  
Month to date cooling degree days 13 54  
Year to date cooling degree days 319 314  
Since 1 June cooling degree days 282 295  
Growing Degree Days 16 (Base 50)    
Moisture  
Dew Point 55 °F    
Average Humidity 68    
Maximum Humidity 100    
Minimum Humidity 36    
Precipitation  
Precipitation 0.01 in 0.14 in 2.81 in (1985)
Month to date precipitation 0.25 1.66  
Year to date precipitation 24.35 19.71  
Snow  
Snow 0.00 in 0.00 in 0.00 in ()
Month to date snowfall 0.0 0.0  
Since 1 June snowfall 0.0 0.0  
Since 1 July snowfall 0.0 0.0  
Snow Depth 0.00 in    
Sea Level Pressure  
Sea Level Pressure 29.99 in    
Wind  
Wind Speed 6 mph (NNW)    
Max Wind Speed 16 mph    
Max Gust Speed 22 mph    
Visibility 6 miles    
Events Fog    
T = Trace of Precipitation, MM = Missing Value Source: NWS Daily Summary

Daily Weather History Graph

Daily Weather History Graph

Search for Another Location

Airport or City:

Trip Planner

Search our weather history database for the weather conditions in past years. The results will help you decide how hot, cold, wet, or windy it might be!

Date:

Astronomy

Aug. 12, 2013 Rise Set
Actual Time 5:57 AM CDT 8:08 PM CDT
Civil Twilight 5:24 AM CDT 8:41 PM CDT
Nautical Twilight 4:44 AM CDT 9:20 PM CDT
Astronomical Twilight 4:00 AM CDT 10:04 PM CDT
Moon 12:06 PM CDT (8/12) 10:42 PM CDT (8/12)
Length of Visible Light 15h 16m
Length of Day
14h 11m
Waxing Crescent, 31% of the Moon is Illuminated
Aug 12
Waxing Crescent
Aug 14
First Quarter
Aug 20
Full
Aug 28
Last Quarter
Sep 5
New

Hourly Weather History & Observations

Time (CDT) Temp. Dew Point Humidity Pressure Visibility Wind Dir Wind Speed Gust Speed Precip Events Conditions
12:54 AM 60.1 °F 59.0 °F 96% 30.04 in 8.0 mi Calm Calm - N/A   Clear
1:54 AM 60.1 °F 59.0 °F 96% 30.03 in 7.0 mi Calm Calm - N/A   Clear
2:18 AM 57.2 °F 57.2 °F 100% 30.02 in 1.5 mi Calm Calm - N/A   Clear
2:29 AM 60.8 °F 59.0 °F 94% 30.02 in 3.0 mi Calm Calm - N/A   Clear
2:54 AM 60.1 °F 59.0 °F 96% 30.02 in 10.0 mi Calm Calm - N/A   Clear
3:04 AM 60.8 °F 59.0 °F 94% 30.01 in 8.0 mi Calm Calm - N/A   Partly Cloudy
3:47 AM 57.2 °F 57.2 °F 100% 30.00 in 1.8 mi Calm Calm - N/A   Partly Cloudy
3:54 AM 59.0 °F 57.9 °F 96% 30.01 in 1.8 mi Calm Calm - N/A   Clear
3:56 AM 57.2 °F 57.2 °F 100% 30.00 in 2.0 mi Calm Calm - N/A   Partly Cloudy
4:06 AM 57.2 °F 57.2 °F 100% 30.00 in 1.0 mi Calm Calm - N/A   Mist
4:13 AM 57.2 °F 57.2 °F 100% 30.00 in 0.5 mi Calm Calm - N/A Fog Fog
4:30 AM 55.4 °F 55.4 °F 100% 29.99 in 1.0 mi Calm Calm - N/A   Mist
4:49 AM 55.4 °F 55.4 °F 100% 30.00 in 0.5 mi Calm Calm - N/A Fog Fog
4:54 AM 55.9 °F 55.0 °F 97% 30.00 in 0.5 mi Calm Calm - N/A Fog Fog
5:54 AM 55.0 °F 55.0 °F 100% 30.00 in 0.8 mi Calm Calm - N/A   Overcast
6:47 AM 55.4 °F 55.4 °F 100% 29.99 in 1.0 mi Calm Calm - 0.01 in   Overcast
6:54 AM 55.9 °F 55.9 °F 100% 30.00 in 2.5 mi Calm Calm - 0.01 in   Overcast
7:01 AM 57.2 °F 55.4 °F 94% 29.99 in 5.0 mi Calm Calm - N/A   Overcast
7:54 AM 60.1 °F 59.0 °F 96% 29.99 in 8.0 mi Calm Calm - N/A   Overcast
8:30 AM 62.6 °F 60.8 °F 94% 29.98 in 10.0 mi NW 3.5 mph - N/A   Overcast
8:45 AM 62.6 °F 60.8 °F 94% 29.98 in 10.0 mi Calm Calm - N/A   Overcast
8:54 AM 64.0 °F 60.1 °F 87% 29.98 in 10.0 mi NNE 3.5 mph - N/A   Overcast
9:54 AM 68.0 °F 57.9 °F 70% 29.98 in 10.0 mi NNW 5.8 mph - N/A   Overcast
10:54 AM 72.0 °F 57.0 °F 59% 29.97 in 10.0 mi Variable 5.8 mph - N/A   Scattered Clouds
11:54 AM 73.0 °F 55.0 °F 53% 29.96 in 10.0 mi NW 8.1 mph - N/A   Mostly Cloudy
12:54 PM 77.0 °F 52.0 °F 42% 29.96 in 10.0 mi WNW 11.5 mph - N/A   Scattered Clouds
1:54 PM 78.1 °F 51.1 °F 39% 29.95 in 10.0 mi NW 10.4 mph 19.6 mph N/A   Scattered Clouds
2:54 PM 77.0 °F 52.0 °F 42% 29.94 in 10.0 mi NW 11.5 mph - N/A   Mostly Cloudy
3:54 PM 75.9 °F 46.9 °F 36% 29.94 in 10.0 mi NNW 10.4 mph - N/A   Mostly Cloudy
4:54 PM 78.1 °F 50.0 °F 37% 29.94 in 10.0 mi WNW 11.5 mph 19.6 mph N/A   Partly Cloudy
5:54 PM 73.0 °F 51.1 °F 46% 29.96 in 10.0 mi North 9.2 mph - N/A   Scattered Clouds
6:54 PM 71.1 °F 51.1 °F 49% 29.97 in 10.0 mi North 8.1 mph - N/A   Mostly Cloudy
7:54 PM 68.0 °F 53.1 °F 59% 29.99 in 10.0 mi North 8.1 mph - 0.00 in   Overcast
8:54 PM 64.9 °F 50.0 °F 58% 30.01 in 10.0 mi North 8.1 mph - N/A   Overcast
9:54 PM 61.0 °F 46.9 °F 60% 30.05 in 10.0 mi NNE 8.1 mph - N/A   Clear
10:54 PM 57.9 °F 45.0 °F 62% 30.06 in 10.0 mi North 5.8 mph - N/A   Clear